Regional Weather Roundup
Issued by NWS

Home | Current Version | Previous Version | Text Only | Print | Product List | Glossary Off
Versions: 1 2 3 4 5 6 7 8 9 10 11 12 13 14 15 16 17 18 19 20 21 22 23 24 25 26 27 28 29 30 31 32 33 34 35 36 37 38 39 40 41 42 43 44 45 46 47 48 49 50

000
ASUS43 KLOT 221710
RWRIL

ILLINOIS REGIONAL WEATHER ROUNDUP
NATIONAL WEATHER SERVICE CHICAGO/ROMEOVILLE IL
1100 AM CST MON DEC 22 2014

NOTE: "FAIR" INDICATES FEW OR NO CLOUDS BELOW 12,000 FEET WITH NO
SIGNIFICANT WEATHER AND/OR OBSTRUCTIONS TO VISIBILITY.

* THESE STATIONS ARE NOT UNDER NWS QUALITY CONTROL. THEY ALSO MAY NOT
  REPORT WEATHER SUCH AS PRECIPITATION OR FOG.

ILZ001-002-007-009-015-016-024-221800-
NORTHWEST ILLINOIS

CITY           SKY/WX    TMP DP  RH WIND       PRES   REMARKS
MOLINE         LGT RAIN  37  34  89 E15       29.71F WCI  28
STERLING*      CLOUDY    36  30  80 E14       29.77F WCI  27
SAVANNA*       DRIZZLE   37  32  81 E13       29.76F WCI  29
$$

ILZ003-004-008-010-011-017-018-221800-
NORTH CENTRAL ILLINOIS

CITY           SKY/WX    TMP DP  RH WIND       PRES   REMARKS
ROCKFORD       LGT SNOW  35  30  82 SE10      29.83F WCI  27
FREEPORT*      MIX PCPN  33  31  92 E16       29.80F WCI  22
ROCHELLE*      DRIZZLE   33  31  94 SE14      29.81F WCI  23
DE KALB*       LGT SNOW  33  29  86 SE15      29.82F WCI  23
PERU*          LGT RAIN  35  33  92 E14G20    29.79F WCI  25
$$

ILZ005-006-012>014-019>023-221800-
NORTHEAST ILLINOIS

CITY           SKY/WX    TMP DP  RH WIND       PRES   REMARKS
CHICAGO-OHARE  LGTSLEET  35  29  78 SE12      29.85F WCI  27
CHICAGO-MIDWAY LGT RAIN  36  30  79 SE8       29.86F WCI  30
AURORA         LGT RAIN  36  30  79 SE13      29.83F WCI  27
LANSING*       LGT RAIN  34  31  88 SE10      29.87F WCI  26
JOLIET*        RAIN      33  31  92 SE12      29.85F WCI  25
WAUKEGAN       CLOUDY    36  31  82 SE14      29.86F HAZE    WCI  27
DUPAGE AIRPORT LGT RAIN  35  29  78 SE9       29.84F WCI  28
KANKAKEE*      LGT RAIN  35  33  93 E14       29.84F WCI  25
WHEELING       CLOUDY    36  29  75 SE8       29.87F WCI  30
MORRIS*        LGT RAIN  35  34  97 E9        29.82F WCI  27
ROMEOVILLE*    RAIN      34  32  92 SE10      29.84F WCI  26
NORTHERLY ISL    N/A     34  30  86 SE10        N/A  WCI  26
$$

LMZ740>746-221800-
SOUTHERN LAKE MICHIGAN

STATION/POSITION SKY/WX   TEMP    WIND        PRES    VSBY  WAVE
                          AIR SEA DIR/SP/G                  HT/PER
                          (F)     (DEG/KT/KT) (MB)    (MI)  (FT/S)
WAUKEGAN HARBOR            36     140/ 14/ 16   N/A
HARRISON CRIB              34     140/ 18/ 20   N/A
BURNHAM HARBOR             34     130/ 11/ 14   N/A
CALUMET HARBOR             35     120/  6/  9 1010.5F
$$

ILZ025>027-034>036-040-047-049-050-058-095>099-221800-
WEST-CENTRAL ILLINOIS

CITY           SKY/WX    TMP DP  RH WIND       PRES   REMARKS
QUINCY         CLOUDY    40  39  97 SE12      29.66F FOG
GALESBURG*     LGT RAIN  36  35  96 E12       29.68F WCI  28
MACOMB*        LGT RAIN  37  37  99 SE13      29.71F WCI  29
JACKSONVILLE*  LGT RAIN  42  40  92 SE13G18   29.69F
PITTSFIELD*    LGT RAIN  41  39  94 SE12      29.68F
$$

ILZ028>032-037-038-041>044-048-051>054-059>061-221800-
CENTRAL ILLINOIS

CITY           SKY/WX    TMP DP  RH WIND       PRES   REMARKS
PONTIAC        LGT RAIN  35  34  96 E14       29.80F WCI  26
BLOOMINGTON    LGT RAIN  37  36  96 SE16      29.77F FOG     WCI  27
DECATUR        LGT RAIN  39  39 100 SE15      29.77F FOG     WCI  31
PEORIA         RAIN      38  35  89 SE8G20    29.74F FOG     WCI  32
LACON*         LGT RAIN  35  33  91 E12       29.75F WCI  27
LINCOLN*       LGT RAIN  38  37  95 SE12G20   29.75F WCI  30
SPRINGFIELD    RAIN      40  39  97 SE15      29.71F FOG
TAYLORVILLE    DRIZZLE   37  37 100 SE14G20   29.73F WCI  29
$$

ILZ033-039-045-046-055>057-062-063-221800-
EAST-CENTRAL ILLINOIS

CITY           SKY/WX    TMP DP  RH WIND       PRES   REMARKS
CHAMPAIGN      LGT RAIN  37  35  92 SE17      29.80F FOG     WCI  27
DANVILLE*      DRIZZLE   36  34  94 SE9       29.80F WCI  29
RANTOUL*       DRIZZLE   38  37  94 SE13      29.81F WCI  30
MATTOON        LGT RAIN  39  37  92 SE10      29.78F FOG     WCI  32
PARIS*         LGT RAIN  37  36  95 SE8       29.84F WCI  31
$$

ILZ079-100>102-221800-
SOUTHWEST ILLINOIS

CITY           SKY/WX    TMP DP  RH WIND       PRES   REMARKS
CAHOKIA*       LGT RAIN  46  44  93 S9G17     29.70F
SPARTA*        CLOUDY    46  45  93 SE10      29.73F
$$

ILZ064>066-069>071-074>076-080>082-084>086-088>090-092>094-221800-
SOUTH-CENTRAL ILLINOIS

CITY           SKY/WX    TMP DP  RH WIND       PRES   REMARKS
CARBONDALE     CLOUDY    48  45  89 SE14      29.75F
CAIRO*         DRIZZLE   51  51 100 SE9       29.77F
EFFINGHAM*     RAIN      41  38  90 E10       29.80F
MARION         RAIN      48  46  93 S14       29.78F
MT. VERNON     CLOUDY    43  37  81 SE7       29.79F
CENTRALIA*     LGT RAIN  42  40  91 SE10      29.75F
SALEM*         LGT RAIN  44  42  92 SE8       29.77F
METROPOLIS*    DRIZZLE   49  49 100 SE6       29.78F
$$

ILZ067-068-072-073-078-083-087-091-221800-
SOUTHEAST ILLINOIS

CITY           SKY/WX    TMP DP  RH WIND       PRES   REMARKS
LAWRENCEVILLE  CLOUDY    45  41  86 SE14      29.84F
FLORA*         DRIZZLE   42  42  97 SE10      29.80F
FAIRFIELD*     LGT RAIN  46  43  90 SE13      29.79F
HARRISBURG*    CLOUDY    48  46  90 SE12      29.80F
ROBINSON*      CLOUDY    42  40  89 SE9       29.85F
CARMI*         CLOUDY    48  45  87 SE9       29.82F
$$

ABBREVIATIONS USED IN REMARKS
   TC - TEMPERATURE IN CELSIUS
  WCI - WIND CHILL INDEX
   HX - HEAT INDEX
  VSB - VISIBILITY
$$



USA.gov is the U.S. government's official web portal to all federal, state and local government web resources and services.